WXM80 ListenWXM80 Stop

You find our weather info also at:

UK Metoffice

WeatherCloud

Weather Underground

Northeastern Weather Network

AWEKAS

Citizen Weather Observer Program (CWOP)

HAMweather, WeatherForYou, PWS Weather


Weather Underground History page Text

Daily Summary for June 15, 2017 Units:  Metric    English   Both
« Previous Day
Next Day »
Daily Weekly Monthly Yearly Custom
  High: Low: Average:
Temperature: 27.1 °C 14.2 °C 19.7 °C
Dew Point: 16.1 °C 8.4 °C 12.6 °C
Humidity: 93 % 34 % 67 %
Wind Speed: 13.8 km/h 0 km/h 2.3 km/h
Wind Gust: 22.2 km/h - -
Wind:- - SSE
Pressure: 1017.2 hPa 1015.1 hPa -
Precipitation: 0 mm    
Historical Graphs
 
 
Tabular Data for June 15, 2017
Time Temperature Dew Point Pressure Wind Wind Speed Wind Gust Humidity Rainfall Rate (Hourly)
00:04 16.7 °C 12.8 °C 1016.1 hPa Calm     78 % 0 mm
00:09 16.6 °C 12.7 °C 1015.8 hPa Calm     78 % 0 mm
00:14 16.5 °C 12.8 °C 1015.8 hPa Calm     79 % 0 mm
00:19 16.4 °C 12.8 °C 1015.8 hPa Calm     79 % 0 mm
00:24 16.3 °C 12.7 °C 1015.8 hPa Calm     79 % 0 mm
00:29 16.3 °C 12.6 °C 1015.8 hPa Calm     79 % 0 mm
00:34 16.2 °C 12.5 °C 1016.1 hPa Calm     79 % 0 mm
00:39 16.1 °C 12.7 °C 1015.8 hPa Calm     80 % 0 mm
00:44 16.1 °C 12.8 °C 1015.8 hPa Calm     81 % 0 mm
00:49 16 °C 12.7 °C 1015.8 hPa Calm   1.9 km/h 81 % 0 mm
00:54 15.9 °C 12.7 °C 1015.8 hPa Calm     81 % 0 mm
00:59 15.9 °C 12.6 °C 1015.8 hPa WSW 0.5 km/h   81 % 0 mm
01:04 15.8 °C 12.9 °C 1015.8 hPa WSW 0.3 km/h 1.9 km/h 83 % 0 mm
01:09 15.8 °C 12.9 °C 1015.8 hPa Calm   5.6 km/h 83 % 0 mm
01:10 15.8 °C 12.9 °C 1015.8 hPa WSW 0.2 km/h 5.6 km/h 83 % 0 mm
01:15 15.8 °C 12.9 °C 1015.8 hPa Calm     83 % 0 mm
01:20 15.8 °C 12.9 °C 1015.8 hPa Calm     83 % 0 mm
01:25 15.8 °C 12.9 °C 1015.8 hPa Calm     83 % 0 mm
01:30 15.8 °C 12.9 °C 1016.1 hPa Calm     83 % 0 mm
01:35 15.8 °C 12.9 °C 1015.8 hPa Calm     83 % 0 mm
01:40 15.8 °C 12.9 °C 1015.8 hPa Calm     83 % 0 mm
01:45 15.8 °C 12.9 °C 1015.8 hPa Calm     83 % 0 mm
01:50 15.8 °C 13.1 °C 1015.8 hPa Calm     84 % 0 mm
01:55 15.7 °C 13 °C 1015.8 hPa Calm   1.9 km/h 84 % 0 mm
02:00 15.7 °C 12.9 °C 1015.8 hPa Calm     84 % 0 mm
02:05 15.6 °C 12.9 °C 1015.8 hPa Calm   1.9 km/h 84 % 0 mm
02:10 15.6 °C 13.1 °C 1015.8 hPa Calm     85 % 0 mm
02:15 15.5 °C 13 °C 1015.8 hPa Calm     85 % 0 mm
02:20 15.4 °C 12.9 °C 1015.8 hPa Calm     85 % 0 mm
02:25 15.4 °C 13.1 °C 1015.8 hPa Calm     86 % 0 mm
02:30 15.4 °C 13.1 °C 1015.8 hPa Calm     86 % 0 mm
02:35 15.3 °C 13 °C 1015.8 hPa Calm     86 % 0 mm
02:40 15.3 °C 12.9 °C 1015.8 hPa Calm     86 % 0 mm
02:45 15.2 °C 13.1 °C 1015.8 hPa Calm   1.9 km/h 87 % 0 mm
02:50 15.2 °C 13.4 °C 1015.8 hPa Calm     89 % 0 mm
02:55 15.2 °C 13.4 °C 1015.8 hPa Calm     89 % 0 mm
03:00 15.2 °C 13.4 °C 1015.8 hPa WSW 0.2 km/h 1.6 km/h 89 % 0 mm
03:05 15.1 °C 13.3 °C 1015.8 hPa Calm   1.9 km/h 89 % 0 mm
03:10 15.1 °C 13.3 °C 1015.8 hPa Calm     89 % 0 mm
03:15 15.1 °C 13.3 °C 1015.8 hPa Calm     89 % 0 mm
03:20 15.1 °C 13.3 °C 1015.8 hPa Calm     89 % 0 mm
03:25 15.1 °C 13.3 °C 1016.1 hPa Calm     89 % 0 mm
03:30 15.1 °C 13.4 °C 1015.8 hPa Calm   1.9 km/h 90 % 0 mm
03:35 15.1 °C 13.4 °C 1015.5 hPa Calm     90 % 0 mm
03:40 15 °C 13.4 °C 1015.5 hPa Calm     90 % 0 mm
03:45 15 °C 13.4 °C 1015.5 hPa Calm     90 % 0 mm
03:50 15 °C 13.4 °C 1015.5 hPa South 2.1 km/h 5.6 km/h 90 % 0 mm
03:55 14.9 °C 13.3 °C 1015.1 hPa SSE 2.1 km/h 4.8 km/h 90 % 0 mm
04:00 14.9 °C 13.3 °C 1015.5 hPa Calm     90 % 0 mm
04:05 14.9 °C 13.3 °C 1015.8 hPa Calm   1.9 km/h 90 % 0 mm
04:10 14.9 °C 13.3 °C 1015.5 hPa Calm   1.9 km/h 90 % 0 mm
04:15 14.8 °C 13.2 °C 1015.5 hPa Calm   1.6 km/h 90 % 0 mm
04:20 14.8 °C 13.4 °C 1015.8 hPa SE 0.2 km/h 5.6 km/h 91 % 0 mm
04:25 14.8 °C 13.2 °C 1015.8 hPa Calm   3.2 km/h 90 % 0 mm
04:31 14.8 °C 13.2 °C 1015.5 hPa Calm     90 % 0 mm
04:36 14.8 °C 13.2 °C 1015.5 hPa Calm   3.7 km/h 90 % 0 mm
04:41 14.8 °C 13.2 °C 1015.5 hPa SE 0.3 km/h 1.9 km/h 90 % 0 mm
04:46 14.7 °C 13.1 °C 1015.5 hPa SE 1.4 km/h 5.6 km/h 90 % 0 mm
04:51 14.7 °C 13.1 °C 1015.5 hPa Calm     90 % 0 mm
04:56 14.7 °C 13.1 °C 1015.8 hPa Calm     90 % 0 mm
05:01 14.6 °C 13 °C 1015.8 hPa Calm     90 % 0 mm
05:06 14.6 °C 12.9 °C 1015.8 hPa Calm     90 % 0 mm
05:11 14.6 °C 12.9 °C 1015.5 hPa Calm     90 % 0 mm
05:16 14.5 °C 12.9 °C 1015.8 hPa Calm     90 % 0 mm
05:17 14.5 °C 12.9 °C 1015.8 hPa Calm     90 % 0 mm
05:22 14.4 °C 12.8 °C 1015.8 hPa Calm     90 % 0 mm
05:27 14.4 °C 12.8 °C 1015.8 hPa Calm   1.9 km/h 90 % 0 mm
05:29 14.3 °C 12.7 °C 1015.8 hPa Calm   1.9 km/h 90 % 0 mm
05:34 14.3 °C 12.7 °C 1015.8 hPa Calm     90 % 0 mm
05:39 14.3 °C 12.7 °C 1015.8 hPa Calm     90 % 0 mm
05:44 14.3 °C 12.7 °C 1015.8 hPa Calm     90 % 0 mm
05:49 14.2 °C 12.8 °C 1015.8 hPa Calm     91 % 0 mm
05:54 14.2 °C 12.7 °C 1015.8 hPa Calm     91 % 0 mm
05:59 14.2 °C 12.7 °C 1016.1 hPa Calm   3.7 km/h 91 % 0 mm
06:04 14.2 °C 12.7 °C 1016.1 hPa West 0.2 km/h 1.9 km/h 91 % 0 mm
06:09 14.2 °C 12.7 °C 1016.1 hPa Calm     91 % 0 mm
06:15 14.2 °C 12.7 °C 1015.8 hPa Calm   1.9 km/h 91 % 0 mm
06:20 14.2 °C 12.9 °C 1016.1 hPa Calm     92 % 0 mm
06:25 14.4 °C 13.3 °C 1015.8 hPa SSE 2.6 km/h 8 km/h 93 % 0 mm
06:30 14.6 °C 13.4 °C 1015.8 hPa South 5.8 km/h 13 km/h 93 % 0 mm
06:35 14.7 °C 13.6 °C 1016.1 hPa SE 3.4 km/h 9.7 km/h 93 % 0 mm
06:40 15 °C 13.7 °C 1016.1 hPa SE 9.8 km/h 16.7 km/h 92 % 0 mm
06:45 15.2 °C 13.8 °C 1016.1 hPa SE 6.6 km/h 13 km/h 91 % 0 mm
06:50 15.5 °C 13.9 °C 1016.1 hPa SE 2.3 km/h 5.6 km/h 90 % 0 mm
06:55 15.8 °C 14.2 °C 1015.8 hPa SE 3.1 km/h 11.1 km/h 90 % 0 mm
07:00 16.2 °C 14.2 °C 1016.1 hPa SE 7.7 km/h 13 km/h 88 % 0 mm
07:01 16.3 °C 14.1 °C 1016.1 hPa SE 5.6 km/h 16.1 km/h 87 % 0 mm
07:06 16.6 °C 14.3 °C 1016.1 hPa SSE 6.4 km/h 11.3 km/h 86 % 0 mm
07:11 16.9 °C 14.3 °C 1016.1 hPa SE 7.4 km/h 11.1 km/h 85 % 0 mm
07:16 17.1 °C 14.6 °C 1016.5 hPa SSE 1.6 km/h 8 km/h 85 % 0 mm
07:21 17.4 °C 14.4 °C 1016.1 hPa SE 5.8 km/h 9.3 km/h 83 % 0 mm
07:26 17.6 °C 14.7 °C 1016.1 hPa SE 2.3 km/h 7.4 km/h 83 % 0 mm
07:31 17.8 °C 14.8 °C 1016.5 hPa SE 1.9 km/h 5.6 km/h 83 % 0 mm
07:36 17.9 °C 14.8 °C 1016.5 hPa South 0.5 km/h 3.7 km/h 82 % 0 mm
07:42 17.9 °C 14.6 °C 1016.5 hPa SSE 1.9 km/h 5.6 km/h 81 % 0 mm
07:47 18 °C 14.9 °C 1016.5 hPa SE 3.7 km/h 6.4 km/h 82 % 0 mm
07:52 18.2 °C 14.8 °C 1016.5 hPa Calm   7.4 km/h 81 % 0 mm
07:57 18.4 °C 15.4 °C 1016.5 hPa SE 3.1 km/h 7.4 km/h 83 % 0 mm
08:02 18.5 °C 15 °C 1016.5 hPa SE 3.5 km/h 9.7 km/h 80 % 0 mm
08:07 18.6 °C 15.2 °C 1016.8 hPa SSE 0.2 km/h 3.7 km/h 81 % 0 mm
08:12 18.7 °C 15.4 °C 1016.8 hPa SSE 0.3 km/h 3.7 km/h 81 % 0 mm
08:17 18.8 °C 15.5 °C 1016.8 hPa SSE 0.2 km/h 3.7 km/h 81 % 0 mm
08:22 19 °C 15.7 °C 1016.8 hPa Calm   1.9 km/h 81 % 0 mm
08:27 19.2 °C 15.8 °C 1016.8 hPa SSE 3.4 km/h 6.4 km/h 81 % 0 mm
08:32 19.3 °C 15.6 °C 1016.8 hPa SE 3.9 km/h 7.4 km/h 79 % 0 mm
08:37 19.6 °C 15.8 °C 1016.8 hPa SE 2.3 km/h 4.8 km/h 79 % 0 mm
08:42 19.7 °C 15.4 °C 1016.8 hPa SE 2.1 km/h 5.6 km/h 76 % 0 mm
08:47 19.8 °C 15.1 °C 1016.8 hPa ESE 1.6 km/h 11.1 km/h 74 % 0 mm
08:52 19.9 °C 15.4 °C 1016.8 hPa SE 0.2 km/h 3.2 km/h 75 % 0 mm
08:57 20.1 °C 15.5 °C 1016.8 hPa SE 0.2 km/h 1.9 km/h 75 % 0 mm
09:02 20.3 °C 16.1 °C 1017.2 hPa ESE 0.8 km/h 3.7 km/h 77 % 0 mm
09:07 20.4 °C 15.2 °C 1017.2 hPa Calm   5.6 km/h 72 % 0 mm
09:12 20.6 °C 15.6 °C 1017.2 hPa SE 1 km/h 3.2 km/h 73 % 0 mm
09:17 20.7 °C 15.7 °C 1017.2 hPa SE 0.8 km/h 1.9 km/h 73 % 0 mm
09:22 20.8 °C 15.2 °C 1016.8 hPa SE 0.2 km/h 1.9 km/h 70 % 0 mm
09:27 21.1 °C 15.4 °C 1016.8 hPa SE 1.9 km/h 7.4 km/h 70 % 0 mm
09:32 21.1 °C 15 °C 1017.2 hPa SE 1.9 km/h 5.6 km/h 68 % 0 mm
09:34 21.2 °C 15 °C 1016.8 hPa SE 3.4 km/h 5.6 km/h 68 % 0 mm
09:39 21.2 °C 15.3 °C 1017.2 hPa SE 0.2 km/h 1.9 km/h 69 % 0 mm
09:44 21.4 °C 15.2 °C 1016.8 hPa SE 1.8 km/h 4.8 km/h 68 % 0 mm
09:49 21.7 °C 15.1 °C 1016.8 hPa East 1 km/h 5.6 km/h 66 % 0 mm
09:54 21.9 °C 13.8 °C 1016.8 hPa SE 5.8 km/h 9.3 km/h 60 % 0 mm
09:59 22.2 °C 15.3 °C 1016.8 hPa SE 0.2 km/h 5.6 km/h 65 % 0 mm
10:04 22.5 °C 14.3 °C 1017.2 hPa SW 1.6 km/h 5.6 km/h 60 % 0 mm
10:09 22.8 °C 13.9 °C 1016.8 hPa SSW 1.3 km/h 1.9 km/h 57 % 0 mm
10:14 23.1 °C 11.8 °C 1017.2 hPa SE 1.3 km/h 14.8 km/h 49 % 0 mm
10:19 23.4 °C 13.3 °C 1017.2 hPa SE 0.6 km/h 9.3 km/h 53 % 0 mm
10:24 23.5 °C 13.7 °C 1017.2 hPa SE 0.3 km/h 1.9 km/h 54 % 0 mm
10:29 23.7 °C 14.1 °C 1017.2 hPa SSE 0.5 km/h 3.7 km/h 55 % 0 mm
10:35 23.8 °C 13.3 °C 1017.2 hPa SSE 0.8 km/h 1.6 km/h 52 % 0 mm
10:40 23.8 °C 11.8 °C 1017.2 hPa SE 5.3 km/h 5.6 km/h 47 % 0 mm
10:45 23.8 °C 11.8 °C 1017.2 hPa SE 6.3 km/h 9.3 km/h 47 % 0 mm
10:50 23.7 °C 11.4 °C 1017.2 hPa SSE 1.1 km/h 3.7 km/h 46 % 0 mm
10:55 23.6 °C 11 °C 1017.2 hPa SE 0.8 km/h 9.3 km/h 45 % 0 mm
11:00 23.4 °C 11.5 °C 1017.2 hPa SE 2.7 km/h 14.8 km/h 47 % 0 mm
11:05 23.5 °C 11.8 °C 1017.2 hPa WSW 0.3 km/h 5.6 km/h 48 % 0 mm
11:10 23.8 °C 12.4 °C 1017.2 hPa SSW 3.2 km/h 5.6 km/h 49 % 0 mm
11:15 24.1 °C 12.7 °C 1017.2 hPa SW 0.5 km/h 7.4 km/h 49 % 0 mm
11:20 24.3 °C 12.6 °C 1017.2 hPa SW 4.2 km/h 9.3 km/h 48 % 0 mm
11:25 24.6 °C 11.2 °C 1017.2 hPa SE 3.7 km/h 7.4 km/h 43 % 0 mm
11:30 25 °C 12.6 °C 1017.2 hPa SSE 2.9 km/h 7.4 km/h 46 % 0 mm
11:35 25.3 °C 12.6 °C 1017.2 hPa SW 2.6 km/h 6.4 km/h 45 % 0 mm
11:40 25.4 °C 10.8 °C 1016.8 hPa SE 3.2 km/h 9.3 km/h 40 % 0 mm
11:45 25.3 °C 12.8 °C 1016.8 hPa SE 1.4 km/h 5.6 km/h 46 % 0 mm
11:50 25.2 °C 10.2 °C 1016.8 hPa SSE 8.5 km/h 14.5 km/h 39 % 0 mm
11:55 24.9 °C 10.7 °C 1016.8 hPa SSW 6.4 km/h 11.1 km/h 41 % 0 mm
12:00 24.7 °C 9.8 °C 1016.8 hPa South 2.9 km/h 7.4 km/h 39 % 0 mm
12:02 24.7 °C 10.9 °C 1016.8 hPa WSW 1.6 km/h 5.6 km/h 42 % 0 mm
12:07 24.7 °C 10.2 °C 1016.8 hPa SSE 3.2 km/h 11.1 km/h 40 % 0 mm
12:12 24.7 °C 10.2 °C 1017.2 hPa ESE 1.1 km/h 7.4 km/h 40 % 0 mm
12:17 24.8 °C 12.8 °C 1016.8 hPa SSW 2.6 km/h 5.6 km/h 47 % 0 mm
12:22 25.1 °C 10.9 °C 1016.8 hPa SSE 4.5 km/h 9.7 km/h 41 % 0 mm
12:27 25.1 °C 9.8 °C 1016.8 hPa SSW 6.8 km/h 9.3 km/h 38 % 0 mm
12:32 25.1 °C 10.5 °C 1016.8 hPa SSW 1.9 km/h 5.6 km/h 40 % 0 mm
12:37 25 °C 10.8 °C 1016.8 hPa SW 3.2 km/h 7.4 km/h 41 % 0 mm
12:42 24.8 °C 11 °C 1016.8 hPa SE 3.1 km/h 11.3 km/h 42 % 0 mm
12:47 24.9 °C 10.1 °C 1016.8 hPa SSE 7.1 km/h 16.7 km/h 39 % 0 mm
12:52 25.1 °C 12 °C 1016.8 hPa SW 5.1 km/h 7.4 km/h 44 % 0 mm
12:57 25.4 °C 10.8 °C 1016.5 hPa SE 0.8 km/h 5.6 km/h 40 % 0 mm
13:02 25.9 °C 11.3 °C 1016.5 hPa SSW 5.5 km/h 9.3 km/h 40 % 0 mm
13:07 26.1 °C 11.1 °C 1016.5 hPa SE 0.8 km/h 11.1 km/h 39 % 0 mm
13:12 26.1 °C 11.1 °C 1016.5 hPa SSW 4.5 km/h 9.3 km/h 39 % 0 mm
13:17 26.3 °C 10.5 °C 1016.5 hPa SW 3.4 km/h 5.6 km/h 37 % 0 mm
13:22 26.4 °C 10.2 °C 1016.5 hPa South 3.4 km/h 11.1 km/h 36 % 0 mm
13:27 26.4 °C 9.7 °C 1016.5 hPa SW 1 km/h 5.6 km/h 35 % 0 mm
13:32 26.6 °C 11.4 °C 1016.5 hPa SSW 2.3 km/h 6.4 km/h 39 % 0 mm
13:37 26.8 °C 12.8 °C 1016.5 hPa SW 1.3 km/h 5.6 km/h 42 % 0 mm
13:42 26.9 °C 11.4 °C 1016.5 hPa SSW 3.9 km/h 13 km/h 38 % 0 mm
13:47 27.1 °C 9.8 °C 1016.5 hPa SSW 6.8 km/h 8 km/h 34 % 0 mm
13:52 26.9 °C 10.1 °C 1016.5 hPa SE 4.8 km/h 11.1 km/h 35 % 0 mm
13:57 26.6 °C 11.4 °C 1016.5 hPa SE 3.5 km/h 7.4 km/h 39 % 0 mm
14:08 25.9 °C 10.1 °C 1016.1 hPa South 3.9 km/h 5.6 km/h 37 % 0 mm
14:13 25.6 °C 9.4 °C 1016.1 hPa SE 5.5 km/h 18.5 km/h 36 % 0 mm
14:18 25.5 °C 12.7 °C 1016.1 hPa SE 1.3 km/h 3.7 km/h 45 % 0 mm
14:23 25.7 °C 12.2 °C 1016.1 hPa SE 1.1 km/h 3.7 km/h 43 % 0 mm
14:28 25.8 °C 11.9 °C 1016.1 hPa SSW 1.6 km/h 5.6 km/h 42 % 0 mm
14:33 25.8 °C 10.8 °C 1016.1 hPa SW 4.2 km/h 11.1 km/h 39 % 0 mm
14:38 25.8 °C 10.8 °C 1016.1 hPa SE 1 km/h 7.4 km/h 39 % 0 mm
14:43 26 °C 9.3 °C 1016.5 hPa SSW 5.6 km/h 13 km/h 35 % 0 mm
14:48 25.8 °C 9.2 °C 1016.1 hPa SSW 3.9 km/h 13 km/h 35 % 0 mm
14:53 25.4 °C 8.4 °C 1016.1 hPa SSE 13.8 km/h 20.4 km/h 34 % 0 mm
14:58 24.9 °C 8.4 °C 1016.1 hPa SE 0.6 km/h 5.6 km/h 35 % 0 mm
15:03 24.9 °C 9.2 °C 1016.1 hPa SE 4 km/h 17.7 km/h 37 % 0 mm
15:08 24.7 °C 9.4 °C 1015.8 hPa SSW 1.8 km/h 18.5 km/h 38 % 0 mm
15:13 24.6 °C 9.3 °C 1015.8 hPa SE 1.8 km/h 7.4 km/h 38 % 0 mm
15:18 24.5 °C 8.8 °C 1015.8 hPa SSE 7.4 km/h 16.7 km/h 37 % 0 mm
15:23 24.5 °C 9.6 °C 1015.8 hPa SSE 1 km/h 5.6 km/h 39 % 0 mm
15:28 24.6 °C 10.1 °C 1015.8 hPa Calm   3.7 km/h 40 % 0 mm
15:33 24.6 °C 9.3 °C 1015.8 hPa South 3.9 km/h 9.3 km/h 38 % 0 mm
15:38 24.7 °C 9.4 °C 1015.8 hPa SSE 2.1 km/h 5.6 km/h 38 % 0 mm
15:43 24.9 °C 10.7 °C 1015.8 hPa SE 1.1 km/h 7.4 km/h 41 % 0 mm
15:48 25.1 °C 10.1 °C 1015.8 hPa SE 2.3 km/h 5.6 km/h 39 % 0 mm
15:53 24.9 °C 10.8 °C 1015.8 hPa SE 7.6 km/h 22.2 km/h 41 % 0 mm
15:58 24.8 °C 9.9 °C 1016.1 hPa SE 1 km/h 5.6 km/h 39 % 0 mm
16:03 24.6 °C 10.1 °C 1016.1 hPa SSE 8.4 km/h 18.5 km/h 40 % 0 mm
16:08 24.3 °C 9.8 °C 1015.8 hPa SE 11.6 km/h 16.7 km/h 40 % 0 mm
16:13 24.1 °C 10.7 °C 1015.8 hPa SSE 1 km/h 11.1 km/h 43 % 0 mm
16:18 24.1 °C 10.3 °C 1015.8 hPa SSE 1.1 km/h 5.6 km/h 42 % 0 mm
16:23 24.1 °C 10.4 °C 1015.8 hPa SW 3.5 km/h 8 km/h 42 % 0 mm
16:28 24.3 °C 11.2 °C 1015.8 hPa SSE 3.9 km/h 7.4 km/h 44 % 0 mm
16:33 24.2 °C 10.4 °C 1015.8 hPa SSE 7.4 km/h 16.7 km/h 42 % 0 mm
16:38 24.1 °C 12.1 °C 1015.8 hPa SE 3.4 km/h 9.3 km/h 47 % 0 mm
16:43 23.9 °C 10.2 °C 1015.8 hPa SSE 9.8 km/h 18.5 km/h 42 % 0 mm
16:48 23.8 °C 10.2 °C 1015.8 hPa SSW 6.6 km/h 11.1 km/h 42 % 0 mm
16:53 23.7 °C 10.4 °C 1015.8 hPa South 1.4 km/h 5.6 km/h 43 % 0 mm
16:59 23.6 °C 10.3 °C 1015.8 hPa SSE 1.4 km/h 5.6 km/h 43 % 0 mm
17:04 23.6 °C 10.6 °C 1015.8 hPa SSE 4.2 km/h 9.3 km/h 44 % 0 mm
17:09 23.4 °C 10.8 °C 1015.8 hPa South 0.6 km/h 5.6 km/h 45 % 0 mm
17:14 23.4 °C 11.1 °C 1015.8 hPa SSE 0.5 km/h 1.9 km/h 46 % 0 mm
17:19 23.3 °C 10.7 °C 1015.8 hPa SE 7.2 km/h 12.9 km/h 45 % 0 mm
17:24 22.8 °C 10.3 °C 1015.8 hPa SE 5.3 km/h 18.5 km/h 45 % 0 mm
17:29 22.6 °C 10.7 °C 1015.5 hPa SE 7.2 km/h 11.3 km/h 47 % 0 mm
17:34 22.3 °C 10.4 °C 1015.8 hPa SSE 13.2 km/h 18.5 km/h 47 % 0 mm
17:39 22.1 °C 10.9 °C 1015.8 hPa SSE 1.1 km/h 3.7 km/h 49 % 0 mm
17:44 22.1 °C 11.5 °C 1015.8 hPa ESE 6.1 km/h 14.5 km/h 51 % 0 mm
17:49 22 °C 10.8 °C 1015.8 hPa SSW 5.1 km/h 8 km/h 49 % 0 mm
17:54 21.9 °C 11 °C 1015.5 hPa South 2.1 km/h 9.3 km/h 50 % 0 mm
17:59 21.8 °C 11.2 °C 1015.5 hPa SSE 0.3 km/h 1.9 km/h 51 % 0 mm
18:04 21.7 °C 11.1 °C 1015.5 hPa SE 1.9 km/h 9.7 km/h 51 % 0 mm
18:09 21.6 °C 11.6 °C 1015.5 hPa SW 1 km/h 3.7 km/h 53 % 0 mm
18:14 21.5 °C 11.5 °C 1015.5 hPa SE 1.3 km/h 3.2 km/h 53 % 0 mm
18:19 21.4 °C 11.7 °C 1015.5 hPa SSE 3.5 km/h 4.8 km/h 54 % 0 mm
18:24 21.2 °C 11.6 °C 1015.1 hPa SSE 1.1 km/h 7.4 km/h 54 % 0 mm
18:29 21.1 °C 11.7 °C 1015.1 hPa SE 5.3 km/h 19.3 km/h 55 % 0 mm
18:34 21 °C 11.6 °C 1015.1 hPa SE 5.3 km/h 14.8 km/h 55 % 0 mm
18:39 20.8 °C 11.7 °C 1015.5 hPa SE 8.5 km/h 14.8 km/h 56 % 0 mm
18:44 20.7 °C 11.9 °C 1015.1 hPa SSE 4.5 km/h 11.1 km/h 57 % 0 mm
18:50 20.6 °C 11.7 °C 1015.1 hPa SSE 6.3 km/h 14.8 km/h 57 % 0 mm
18:55 20.5 °C 11.9 °C 1015.5 hPa SSE 3.9 km/h 9.3 km/h 58 % 0 mm
19:00 20.4 °C 12.1 °C 1015.5 hPa ESE 7.4 km/h 14.8 km/h 59 % 0 mm
19:05 20.3 °C 12.3 °C 1015.5 hPa South 4.2 km/h 9.3 km/h 60 % 0 mm
19:10 20.2 °C 12.4 °C 1015.5 hPa SSE 7.2 km/h 16.7 km/h 61 % 0 mm
19:15 20.1 °C 12.6 °C 1015.5 hPa SE 5.3 km/h 18.5 km/h 62 % 0 mm
19:20 20.1 °C 12.6 °C 1015.5 hPa SE 5.5 km/h 11.1 km/h 62 % 0 mm
19:25 19.9 °C 12.4 °C 1015.5 hPa SE 6.6 km/h 11.1 km/h 62 % 0 mm
19:30 19.8 °C 12.8 °C 1015.5 hPa SE 2.3 km/h 3.7 km/h 64 % 0 mm
19:35 19.8 °C 12.8 °C 1015.5 hPa South 0.8 km/h 3.7 km/h 64 % 0 mm
19:40 19.7 °C 12.7 °C 1015.8 hPa SE 2.6 km/h 9.3 km/h 64 % 0 mm
19:45 19.7 °C 12.7 °C 1015.8 hPa SE 4.2 km/h 9.7 km/h 64 % 0 mm
19:50 19.6 °C 12.6 °C 1015.8 hPa SE 1.4 km/h 5.6 km/h 64 % 0 mm
19:55 19.5 °C 12.7 °C 1015.8 hPa SE 3.5 km/h 11.1 km/h 65 % 0 mm
20:00 19.4 °C 12.7 °C 1015.5 hPa SE 6.6 km/h 9.3 km/h 65 % 0 mm
20:05 19.3 °C 12.6 °C 1015.8 hPa SSE 2.4 km/h 7.4 km/h 65 % 0 mm
20:06 19.3 °C 12.6 °C 1015.8 hPa SSE 0.6 km/h 3.7 km/h 65 % 0 mm
20:11 19.2 °C 12.5 °C 1015.8 hPa SE 3.4 km/h 7.4 km/h 65 % 0 mm
20:16 19.2 °C 12.4 °C 1015.8 hPa SE 2.7 km/h 9.3 km/h 65 % 0 mm
20:21 19.1 °C 12.4 °C 1015.8 hPa SSE 0.8 km/h 7.4 km/h 65 % 0 mm
20:26 19.1 °C 12.6 °C 1015.5 hPa SSE 1.9 km/h 5.6 km/h 66 % 0 mm
20:31 19.1 °C 12.8 °C 1015.8 hPa SSE 1 km/h 7.4 km/h 67 % 0 mm
20:36 19.1 °C 13 °C 1015.8 hPa SE 3.9 km/h 6.4 km/h 68 % 0 mm
20:41 19 °C 12.9 °C 1015.8 hPa SE 5.5 km/h 11.1 km/h 68 % 0 mm
20:46 18.9 °C 13.1 °C 1015.8 hPa SSE 1.9 km/h 5.6 km/h 69 % 0 mm
20:52 18.8 °C 12.8 °C 1015.8 hPa ESE 1.9 km/h 11.1 km/h 68 % 0 mm
20:57 18.8 °C 12.9 °C 1015.8 hPa SE 4.5 km/h 9.3 km/h 69 % 0 mm
21:02 18.7 °C 13.1 °C 1015.8 hPa SE 4.7 km/h 7.4 km/h 70 % 0 mm
21:07 18.6 °C 13.1 °C 1015.8 hPa SE 4.5 km/h 13 km/h 70 % 0 mm
21:12 18.6 °C 13 °C 1015.8 hPa SSE 3.9 km/h 9.3 km/h 70 % 0 mm
21:17 18.5 °C 13.2 °C 1015.8 hPa SE 1 km/h 3.7 km/h 71 % 0 mm
21:22 18.5 °C 13.2 °C 1016.1 hPa SE 4.5 km/h 7.4 km/h 71 % 0 mm
21:27 18.4 °C 13.2 °C 1016.1 hPa SE 7.1 km/h 9.3 km/h 72 % 0 mm
21:32 18.3 °C 13.2 °C 1015.8 hPa SE 1.9 km/h 7.4 km/h 72 % 0 mm
21:37 18.2 °C 13.3 °C 1016.1 hPa SE 3.5 km/h 8 km/h 73 % 0 mm
21:42 18.1 °C 13.4 °C 1016.1 hPa SE 5 km/h 9.3 km/h 74 % 0 mm
21:47 18.1 °C 13.3 °C 1016.1 hPa SE 1.6 km/h 5.6 km/h 74 % 0 mm
21:52 17.9 °C 13.4 °C 1016.1 hPa ESE 7.7 km/h 13 km/h 75 % 0 mm
21:57 17.8 °C 13.3 °C 1016.1 hPa SE 5.1 km/h 11.1 km/h 75 % 0 mm
22:02 17.7 °C 13.4 °C 1016.1 hPa SE 1.1 km/h 5.6 km/h 76 % 0 mm
22:07 17.7 °C 13.6 °C 1016.1 hPa SE 1.1 km/h 5.6 km/h 77 % 0 mm
22:12 17.6 °C 13.6 °C 1016.5 hPa Calm   3.7 km/h 77 % 0 mm
22:17 17.5 °C 13.6 °C 1016.5 hPa SE 0.2 km/h 1.9 km/h 78 % 0 mm
22:22 17.4 °C 13.6 °C 1016.5 hPa SE 0.2 km/h 1.6 km/h 78 % 0 mm
22:27 17.4 °C 13.7 °C 1016.1 hPa Calm   3.7 km/h 79 % 0 mm
22:32 17.3 °C 13.7 °C 1016.1 hPa SE 0.2 km/h   79 % 0 mm
22:37 17.2 °C 13.6 °C 1016.1 hPa Calm   1.9 km/h 79 % 0 mm
22:42 17.2 °C 13.7 °C 1016.1 hPa Calm     80 % 0 mm
22:47 17.2 °C 13.7 °C 1016.1 hPa Calm     80 % 0 mm
22:52 17.1 °C 13.8 °C 1016.1 hPa Calm     81 % 0 mm
22:57 17.1 °C 13.8 °C 1016.1 hPa Calm     81 % 0 mm
23:02 17 °C 13.9 °C 1016.1 hPa Calm     82 % 0 mm
23:08 16.9 °C 13.8 °C 1016.1 hPa Calm     82 % 0 mm
23:13 16.9 °C 13.8 °C 1016.5 hPa Calm     82 % 0 mm
23:18 16.9 °C 13.8 °C 1016.1 hPa Calm     82 % 0 mm
23:23 16.9 °C 13.8 °C 1016.5 hPa Calm     82 % 0 mm
23:28 16.9 °C 13.8 °C 1016.1 hPa Calm     82 % 0 mm
23:33 16.8 °C 13.7 °C 1016.1 hPa Calm     82 % 0 mm
23:38 16.8 °C 13.7 °C 1016.1 hPa Calm     82 % 0 mm
23:43 16.8 °C 13.9 °C 1016.1 hPa Calm     83 % 0 mm
23:48 16.8 °C 13.9 °C 1016.1 hPa Calm     83 % 0 mm
23:53 16.8 °C 13.9 °C 1016.1 hPa Calm     83 % 0 mm
23:58 16.8 °C 13.9 °C 1016.1 hPa Calm     83 % 0 mm
Crab Meadow Weather
Compliments of Weather Underground - 3 mb

Script developed by  Jim McMurry - jmcmurry@mwt.net Adapted for the template by  Wim van der Kuil - Leuven-Template.eu

Extremes: The greatest annual rainfall in the United States was 184.56 inches at Wynooches, Oxbow, Washington in 1931.